Terminal Aerodrome Forecast
Issued by NWS

Home | Current Version | Previous Version | Text Only | Print | Product List | Glossary On
Versions: 1 2 3 4 5 6 7 8 9 10 11 12 13 14 15 16 17 18 19 20
000
FTUS41 KPBZ 230500
TAFDUJ
TAF
KDUJ 230526Z 2306/2406 35010KT P6SM OVC010
     FM231500 32008KT P6SM BKN020
     FM231700 32010KT P6SM SCT035=

USA.gov is the U.S. government's official web portal to all federal, state and local government web resources and services.